Theta_e
327 327 330 331 331 332 334 334 335 337 337 338 336 336 338 338 338 338 339 339 340 341 341 338 338 340 342 341 340 341 342 343 343 344 342 341 341 341 341 341 342 343 349 350 350 349 349 349 350 350 349 347 346 345 345 345 348 349 345 347 343 342 340 342 346 346 342 339 342 341 343 346 347 347 347 348 347 346 345 344 345 345 346 345 345
325 326 327 328 329 330 331 333 334 332 334 335 335 336 336 337 336 338 338 339 339 339 342 341 340 339 340 340 339 340 340 339 339 341 342 339 341 342 340 340 342 343 348 350 350 349 349 348 350 349 348 348 347 346 346 345 348 348 348 345 346 341 339 341 345 342 336 333 332 330 334 340 345 345 346 345 347 346 346 344 345 343 341 344 347
325 326 328 327 327 328 329 329 331 332 332 334 335 336 336 336 337 337 339 337 337 339 339 338 340 339 340 341 339 340 342 344 343 347 344 342 343 340 337 337 340 342 348 348 346 347 348 347 349 350 350 348 347 346 345 347 348 348 348 342 340 344 342 346 346 342 335 337 335 330 329 325 341 340 342 343 344 343 342 342 344 341 338 343 344
325 326 326 327 327 328 329 329 330 331 330 332 332 333 334 334 335 336 337 338 340 340 338 339 339 339 340 343 342 340 340 342 342 342 342 343 342 343 341 339 336 337 345 344 341 341 342 348 350 350 350 351 348 346 345 346 348 348 348 347 345 341 340 341 343 343 339 336 328 330 326 327 320 333 334 337 339 341 342 340 340 341 342 343 344
323 324 325 326 327 327 327 328 330 329 330 330 332 332 333 334 335 335 336 336 338 339 339 339 339 338 340 339 339 338 338 337 336 336 338 340 341 342 343 344 342 337 341 346 343 343 342 343 348 350 351 350 349 346 345 344 344 347 349 347 345 343 339 337 341 342 340 342 334 328 327 326 324 328 330 333 335 337 339 338 339 340 342 345 345
324 324 324 326 327 327 328 328 329 330 330 331 332 332 333 334 336 336 336 337 336 338 339 339 338 337 336 334 332 331 330 331 331 333 337 337 338 340 343 345 343 342 341 342 342 345 344 342 340 348 350 351 350 347 346 345 345 344 345 347 345 346 343 337 335 342 341 341 340 339 334 326 325 330 328 327 339 343 340 337 337 342 344 345 345
324 324 324 325 326 327 328 329 329 329 330 331 332 333 333 334 335 336 336 336 338 338 339 338 338 338 337 336 335 333 331 333 336 339 341 343 343 340 342 343 343 341 342 340 341 345 343 343 349 346 343 343 350 349 347 346 343 343 345 345 345 345 342 336 336 336 340 339 338 339 339 338 334 331 328 329 328 337 342 340 342 342 343 341 340
321 321 322 325 325 327 326 327 329 329 330 330 331 332 333 333 334 335 336 336 338 338 338 339 337 337 337 338 337 336 334 333 335 338 342 344 340 339 339 340 342 342 341 339 340 345 343 348 346 343 340 342 346 348 348 346 345 345 345 347 346 342 341 335 334 334 333 335 339 339 338 338 334 337 337 335 331 330 332 341 346 345 345 347 344
321 320 322 323 323 324 325 326 327 330 330 330 331 332 332 334 334 335 335 336 336 337 338 338 338 337 336 336 337 338 338 338 338 338 339 339 339 339 337 337 340 342 342 341 340 340 343 345 345 343 341 337 340 343 346 347 346 345 346 346 345 342 342 340 337 334 336 333 335 337 335 334 338 340 340 341 334 330 330 334 337 341 346 349 348
321 322 322 324 325 325 327 327 328 328 330 331 332 332 332 332 332 333 334 335 336 337 337 337 338 338 338 338 337 337 337 338 338 337 338 341 338 337 337 335 337 339 340 343 342 341 340 344 347 346 345 340 340 342 344 344 346 347 348 347 345 343 342 340 339 337 337 337 335 336 336 337 336 336 339 338 339 340 333 333 336 335 334 339 345
321 322 323 324 326 326 325 325 326 328 330 330 330 331 333 332 332 330 332 333 335 335 336 337 337 337 337 337 336 334 335 336 335 335 336 338 334 334 336 335 338 338 339 344 344 342 341 342 346 347 346 343 340 340 342 346 347 347 347 346 344 342 338 340 341 341 339 338 338 336 335 334 334 332 333 335 338 336 335 334 337 336 336 335 343
321 322 322 323 324 325 324 324 325 327 328 329 330 330 331 331 331 330 331 332 333 334 335 335 336 336 337 337 336 336 336 334 334 335 337 338 337 334 336 337 335 335 340 343 344 345 343 342 344 346 346 342 339 342 340 343 346 346 345 344 343 343 341 340 340 339 340 338 339 338 336 338 337 336 336 336 334 333 336 335 334 337 336 336 338
321 322 322 322 322 323 323 323 325 325 326 328 329 330 330 331 331 329 329 331 332 333 334 335 335 335 335 337 337 336 337 338 337 337 339 339 338 334 334 332 336 339 341 342 343 346 346 346 345 343 343 342 341 342 340 342 346 345 344 343 341 341 339 341 338 340 340 337 336 338 338 339 340 342 341 339 338 337 336 331 335 338 335 335 338
322 322 322 322 322 323 324 324 324 324 326 328 328 329 329 329 330 329 329 331 331 332 332 333 334 335 336 337 339 338 338 338 338 338 340 340 340 340 339 339 338 340 342 342 344 344 344 345 346 345 345 344 343 342 340 346 347 345 344 341 341 340 340 341 341 341 341 341 341 337 338 339 341 343 343 341 339 337 333 333 335 336 338 335 337
322 322 321 321 322 323 323 323 324 325 326 327 327 327 327 327 327 327 328 329 330 330 331 332 333 334 335 335 338 339 337 337 337 339 340 340 340 340 341 340 339 340 340 343 344 344 345 346 346 345 346 347 344 343 346 347 347 345 344 342 341 341 340 340 340 341 339 340 341 339 338 338 340 342 342 342 342 340 338 338 336 331 332 335 333
322 321 321 321 322 323 323 323 323 324 325 325 326 327 327 326 326 327 327 328 329 330 330 331 332 334 334 334 338 339 338 338 338 340 340 341 341 340 341 341 340 340 341 342 343 343 343 344 346 345 347 347 347 346 347 346 346 344 342 342 340 341 340 341 340 340 340 341 341 340 339 337 342 343 344 344 343 343 342 341 339 336 330 326 333
322 321 320 321 322 322 322 323 323 324 324 325 325 326 326 325 325 325 326 327 328 328 330 331 332 332 332 333 334 334 336 337 338 337 337 339 341 341 340 341 342 341 341 342 341 342 342 342 343 344 346 346 345 345 345 345 345 345 343 342 341 342 341 341 340 339 340 341 340 340 339 340 343 347 347 346 345 345 344 342 341 337 336 331 328
322 321 321 321 321 322 322 323 323 323 324 324 325 327 326 326 325 324 325 325 326 327 329 330 330 330 331 331 332 333 333 333 335 335 336 336 336 336 337 338 338 338 339 341 342 342 341 341 342 343 344 344 342 344 343 344 345 344 344 342 342 342 340 341 341 340 340 340 340 340 342 343 346 347 345 346 345 345 343 342 342 341 340 335 333
321 320 320 320 321 321 322 322 323 323 323 323 324 324 325 326 326 326 324 326 326 328 329 330 330 330 330 330 332 332 333 333 333 334 335 335 334 335 335 335 336 337 337 338 338 339 340 340 341 340 341 339 340 342 343 342 342 343 342 342 342 341 340 339 341 342 341 340 339 339 344 345 348 347 346 346 345 344 343 342 342 343 341 340 338
320 320 320 320 320 321 321 321 320 322 322 323 323 323 323 324 325 325 325 325 325 326 328 327 329 329 330 331 332 331 332 332 333 333 333 334 334 334 334 336 336 336 336 336 336 337 337 337 337 339 339 339 339 339 339 344 343 343 340 341 341 342 340 340 339 340 339 339 340 340 344 346 347 345 346 345 344 344 344 342 342 342 340 340 340
321 320 320 320 320 321 320 321 319 320 321 321 322 322 323 323 323 323 323 323 323 325 325 327 327 328 331 330 330 332 333 332 336 336 335 334 335 335 335 335 335 334 335 335 335 335 336 336 337 336 336 338 339 337 338 340 343 341 342 344 341 341 340 340 339 338 339 339 339 341 343 345 347 346 345 346 344 344 344 343 343 341 340 341 340
320 320 321 320 320 320 319 319 319 319 319 319 320 322 323 322 322 322 320 319 320 322 324 326 327 328 328 328 329 330 330 332 333 334 335 336 336 335 337 335 334 335 335 335 334 335 336 336 335 335 335 337 339 337 339 340 338 338 340 343 343 340 340 340 340 337 338 340 344 342 342 343 344 343 345 344 343 343 343 342 342 342 340 342 343
320 320 320 320 320 319 319 319 319 318 319 319 320 320 321 322 322 321 319 319 319 321 322 325 326 326 326 327 328 328 329 330 331 332 332 333 334 335 335 334 334 334 335 335 335 335 335 335 335 336 335 335 337 338 340 340 337 340 339 338 339 339 340 341 339 338 338 344 343 342 341 343 344 344 343 344 344 343 343 341 342 343 342 342 342
319 320 320 319 319 319 318 318 317 318 319 319 320 319 320 321 320 320 319 319 319 320 322 323 324 325 325 326 326 327 328 328 328 328 328 329 330 331 332 333 333 334 334 335 335 334 334 335 335 334 335 335 337 337 336 334 338 339 336 335 337 339 342 344 342 342 342 344 344 342 342 342 343 341 341 342 343 343 343 342 342 342 342 341 342
318 318 318 319 318 317 316 316 316 317 317 319 318 318 318 319 319 318 318 319 319 321 321 321 321 323 324 324 325 326 326 326 326 327 328 329 329 329 330 330 331 333 334 334 334 335 334 333 334 334 334 333 333 334 334 334 340 341 338 337 337 340 344 344 344 343 343 344 343 342 342 342 342 339 341 341 342 343 342 342 341 340 340 341 342
318 318 318 317 317 316 316 317 316 316 316 317 317 317 317 318 318 320 318 319 319 321 321 321 321 321 321 322 324 325 324 325 325 326 327 328 328 328 328 329 329 329 330 332 333 335 335 334 333 333 334 334 333 334 333 332 337 340 342 342 342 344 344 344 344 345 344 344 343 341 341 341 339 339 340 341 342 341 342 341 340 339 339 339 340
317 317 317 317 317 317 316 316 316 316 317 316 315 316 317 317 318 318 318 319 320 320 320 320 320 321 320 322 323 323 324 324 324 325 326 326 326 326 326 326 327 327 328 328 330 329 332 334 333 333 333 333 334 334 334 332 336 338 339 340 340 343 343 342 343 343 343 343 342 340 340 341 340 340 341 341 341 341 341 340 340 340 339 339 339
316 316 316 316 316 316 317 317 317 315 316 316 315 315 316 317 316 317 318 319 319 320 319 319 319 320 320 321 322 323 323 323 324 324 324 325 325 324 324 325 325 325 325 325 326 328 329 330 332 333 333 333 335 335 333 334 338 337 337 336 335 338 340 336 338 340 341 342 342 341 339 340 339 338 338 341 342 340 340 339 340 339 339 338 337
314 315 316 316 316 316 317 316 316 316 316 317 315 315 316 316 316 316 317 317 319 318 318 318 318 319 319 321 322 322 322 322 322 323 323 323 323 323 323 323 323 323 324 323 324 324 325 326 328 331 330 332 333 334 334 331 335 338 335 333 333 335 336 334 335 338 340 341 340 340 337 329 324 318 312 314 315 318 336 337 338 338 336 335 333
313 314 315 316 316 316 316 317 317 315 315 315 315 314 315 315 315 316 316 318 318 318 317 317 317 317 319 319 319 320 320 321 321 321 321 322 321 321 321 321 321 322 322 322 322 323 321 320 322 324 325 326 325 327 328 323 324 334 333 334 336 336 334 334 332 334 336 337 336 330 323 317 314 312 310 306 304 306 309 322 332 334 333 331 331
313 314 315 315 316 316 316 316 316 315 315 315 314 314 314 314 315 315 315 317 316 316 316 316 316 317 318 318 319 319 320 319 320 321 321 320 320 321 321 320 320 320 320 320 320 320 318 315 314 315 317 316 314 314 304 309 310 316 330 333 333 333 334 335 328 331 331 331 330 325 322 318 316 313 309 302 301 301 301 301 302 304 309 326 331
312 314 314 315 315 315 315 315 315 315 315 314 314 313 313 313 314 314 315 316 316 315 315 315 316 317 317 317 317 318 317 317 318 317 317 317 318 318 319 319 319 318 319 319 318 317 315 313 312 311 310 309 309 303 297 299 302 306 317 330 329 327 326 328 329 328 329 328 326 325 324 323 322 320 318 313 307 301 299 299 299 300 299 298 301
313 313 314 314 315 315 316 316 315 314 314 314 314 313 313 313 313 315 316 315 314 315 315 315 315 315 316 317 317 316 315 316 316 315 316 316 316 316 317 318 318 318 318 317 316 314 312 311 310 309 307 307 306 300 297 299 300 301 304 317 322 323 323 322 324 324 324 323 322 321 320 318 318 320 320 318 315 311 304 302 304 305 306 303 299
314 314 314 315 315 315 316 316 316 315 315 315 315 314 314 315 314 315 315 314 313 314 314 314 314 314 315 315 315 314 314 314 314 314 314 315 314 315 316 317 318 317 316 315 316 312 311 310 309 308 307 306 303 299 295 298 299 300 302 308 317 317 317 318 319 320 320 319 320 319 317 317 320 322 323 321 319 319 320 321 323 322 320 316 307
314 314 314 315 315 315 315 315 315 315 316 315 313 314 315 314 314 314 314 314 314 313 314 314 314 314 315 314 314 313 314 313 313 312 313 313 314 315 314 315 316 315 315 315 314 311 309 309 308 308 307 305 302 295 294 296 298 300 302 307 316 315 315 316 318 317 318 320 319 319 319 319 321 322 323 322 325 323 323 322 321 319 317 317 318
315 315 315 315 315 315 315 315 316 315 314 314 314 314 314 313 314 313 313 313 314 313 312 313 313 314 313 314 313 313 313 312 313 312 312 313 314 313 313 314 314 315 316 314 312 310 308 307 307 307 306 305 304 293 294 295 297 299 305 316 317 316 317 317 317 318 320 318 319 319 320 319 319 316 307 295 309 323 322 321 318 316 314 312 310
317 317 317 318 318 317 317 316 315 315 314 314 314 314 313 312 312 312 312 313 313 312 311 312 313 313 313 313 313 311 312 312 311 311 311 313 313 311 312 314 313 315 314 312 310 308 307 308 307 307 306 305 304 296 293 293 295 296 307 316 317 318 317 316 315 316 316 317 318 319 319 317 316 314 301 296 299 311 321 319 317 316 314 312 309
318 318 318 319 319 317 316 316 315 315 315 314 314 313 312 312 312 312 311 311 312 311 311 312 312 312 313 313 312 311 311 312 311 311 310 311 312 312 312 313 313 313 312 310 309 308 308 307 306 306 306 304 303 299 293 293 294 295 306 317 318 316 314 314 314 315 314 312 312 312 317 318 316 312 294 296 297 313 320 319 317 315 313 311 310
317 317 317 316 317 317 316 316 316 314 315 316 315 314 312 311 312 311 312 311 311 311 311 311 312 312 312 312 312 312 311 311 311 312 312 310 310 311 311 313 314 314 311 309 309 307 307 306 306 306 307 306 304 301 294 292 293 293 304 314 314 313 312 312 313 313 313 312 311 309 304 308 313 303 292 296 295 309 319 318 317 316 314 313 313
317 317 318 317 317 316 315 315 314 315 316 316 316 314 313 312 311 311 311 311 311 311 311 311 312 314 312 311 311 311 311 312 311 311 311 311 311 311 311 311 312 312 311 310 308 307 306 305 306 307 306 305 304 301 298 291 293 294 294 310 314 312 311 311 312 311 313 313 313 312 306 292 292 292 294 294 295 296 316 317 316 314 313 311 314
316 315 313 316 316 316 315 315 315 315 316 316 315 313 312 312 312 311 310 311 312 312 312 311 313 313 314 311 310 310 312 312 312 311 311 311 311 311 311 312 311 311 311 309 307 307 306 306 306 306 306 305 305 303 299 291 293 293 292 298 314 312 312 312 312 312 313 314 314 313 312 295 292 293 294 294 296 296 303 317 316 316 315 312 310
316 315 315 317 315 315 315 315 315 315 316 316 315 313 312 311 311 310 311 312 312 311 312 311 312 312 312 312 310 310 312 312 311 311 310 310 311 312 312 312 311 310 308 307 306 306 307 306 307 306 306 304 303 302 303 294 291 293 293 293 311 315 313 314 312 313 313 314 314 313 312 299 292 293 294 295 296 297 300 314 310 296 295 298 312
317 317 316 316 315 314 313 315 315 316 317 316 315 312 312 312 311 312 312 311 311 312 311 312 312 311 311 311 312 310 311 310 310 311 310 311 311 312 312 312 311 308 306 305 305 306 306 305 305 306 306 305 304 302 295 299 293 291 292 294 294 307 298 318 315 313 313 313 314 312 307 296 293 293 294 295 296 297 302 304 293 295 297 295 303
316 316 316 316 316 315 315 317 316 317 316 315 314 312 312 311 311 312 312 312 312 311 311 311 312 311 311 310 311 311 311 311 311 310 310 311 311 311 311 311 310 307 304 303 303 304 304 303 303 304 305 305 305 304 298 293 296 291 292 292 293 293 298 314 315 314 313 312 312 311 304 292 293 293 293 293 294 298 302 292 294 294 294 297 305
316 316 318 317 316 316 316 317 316 316 315 314 314 313 312 311 312 311 311 311 311 311 311 311 311 311 310 310 310 311 310 311 311 310 309 309 311 311 310 310 309 306 303 301 301 303 303 302 302 302 304 305 306 305 304 296 292 293 291 292 293 293 294 299 313 314 314 312 299 292 291 292 292 292 293 294 295 294 292 292 294 294 302 307 307
317 317 317 316 316 317 317 316 315 316 315 315 315 314 313 311 311 311 311 310 311 310 310 310 310 309 309 309 309 310 310 310 310 310 310 309 309 310 309 310 308 306 305 303 303 303 303 303 301 302 303 305 306 306 306 305 303 301 298 291 292 294 297 297 301 302 294 292 292 292 291 291 293 298 308 306 304 305 294 294 292 295 311 307 306
316 318 316 316 316 315 315 315 314 315 315 315 315 314 313 311 311 311 311 311 311 310 310 310 309 309 310 310 310 309 309 309 310 310 310 310 309 309 310 309 308 307 305 304 305 306 306 305 302 301 303 304 306 306 306 306 307 307 306 305 306 305 299 299 304 305 301 302 300 302 301 296 296 294 298 298 299 297 301 303 307 307 307 306 306
317 318 316 315 315 314 314 314 314 315 315 315 314 313 311 312 312 312 311 311 310 310 310 309 310 309 310 309 309 303 306 308 309 310 310 309 309 308 307 309 309 309 307 306 307 306 306 306 303 301 303 305 305 307 307 307 307 307 307 308 309 309 309 309 307 308 308 307 307 298 300 307 303 301 301 304 305 307 306 305 307 305 305 305 306
317 317 315 314 314 313 314 314 314 315 315 314 314 313 312 313 313 312 311 310 310 308 309 309 309 308 308 309 309 309 308 308 309 310 310 310 308 308 307 309 312 312 311 310 309 308 307 308 304 301 302 304 305 306 308 300 311 296 308 308 308 309 310 309 307 299 308 307 306 305 304 303 304 305 304 306 306 305 305 306 307 307 306 306 307
318 318 316 316 315 315 314 312 312 313 314 314 314 313 314 315 312 312 312 311 311 310 309 307 307 307 308 308 309 308 308 308 308 308 309 310 293 292 302 308 309 299 292 292 296 309 312 309 305 304 306 305 306 308 293 292 294 293 290 291 293 294 298 305 299 296 304 306 307 307 306 306 306 306 305 305 304 305 305 305 305 301 304 305 304
316 316 315 315 315 314 314 311 311 313 314 313 314 313 314 313 312 312 311 311 311 309 307 306 306 305 303 307 307 309 309 309 309 308 308 305 306 305 289 287 293 298 296 294 292 291 294 296 305 305 303 291 292 292 293 292 290 291 291 292 293 294 294 293 294 306 308 307 306 305 306 305 304 305 305 304 305 305 306 306 305 304 307 303 302
Wind_Speed
4 4 4 5 5 3 3 3 4 4 3 4 3 2 3 2 1 2 1 2 2 3 3 4 5 5 5 7 7 7 7 7 6 6 6 6 7 7 8 7 8 8 9 9 8 8 8 7 7 7 7 7 7 7 8 7 6 6 5 3 4 3 4 4 3 3 3 3 3 4 3 4 4 5 5 5 4 4 4 4 3 4 4 4 5
6 5 5 4 5 4 3 3 3 2 2 1 0 1 2 1 1 1 2 2 3 4 4 4 4 5 6 6 5 6 5 5 6 6 6 6 7 7 6 6 8 8 8 9 8 9 9 8 8 8 8 7 7 7 8 7 6 6 5 5 4 4 4 4 2 4 4 3 2 2 3 4 4 4 5 4 5 4 4 4 3 4 3 3 3
6 5 5 5 5 4 3 3 3 2 3 3 3 2 2 2 1 1 1 3 3 4 5 4 4 5 6 4 5 5 5 5 5 4 3 5 6 7 7 8 8 8 8 4 4 8 9 9 8 7 8 8 7 8 8 8 7 7 6 5 5 5 5 3 4 5 3 2 3 3 1 2 5 3 3 4 5 5 4 4 3 4 3 3 3
7 5 6 5 5 4 3 3 3 3 2 3 2 2 1 1 2 1 2 3 3 5 5 5 5 6 7 6 5 6 5 5 6 7 7 9 9 8 8 8 9 8 8 7 7 7 10 9 8 8 8 8 7 7 8 8 8 7 7 6 6 5 6 5 5 4 4 3 3 2 2 2 3 3 1 2 3 4 4 5 3 2 3 3 2
6 6 6 5 5 5 4 4 3 3 3 3 3 2 1 2 1 1 0 2 4 3 6 6 6 7 6 6 6 7 7 7 7 8 9 9 8 8 10 10 10 10 9 10 10 8 9 10 10 8 8 8 8 8 8 9 9 8 8 7 8 6 5 4 5 4 4 4 4 3 3 3 1 2 4 1 2 3 5 5 3 3 3 3 3
6 7 6 5 5 5 5 4 4 3 3 3 2 2 1 2 2 1 1 2 2 5 6 5 7 8 6 6 6 7 7 7 9 9 8 8 8 9 10 10 11 10 10 11 12 10 8 7 11 9 9 8 7 7 8 8 9 9 9 8 8 8 5 5 5 4 4 5 5 4 3 4 5 5 7 1 4 1 1 2 1 2 3 3 3
7 6 7 7 5 5 5 4 4 4 4 3 2 2 2 1 1 1 2 2 3 3 4 5 7 7 9 9 8 8 8 7 7 7 7 6 6 7 5 8 11 11 11 12 12 9 8 12 8 3 3 9 8 8 8 9 9 9 8 9 7 7 7 6 5 4 4 5 5 4 4 4 5 5 5 5 2 4 4 3 3 2 2 4 4
8 8 8 7 6 4 5 4 3 4 4 3 3 2 2 1 1 1 1 2 3 3 6 6 7 8 9 9 8 9 8 8 8 8 7 5 6 7 5 6 9 12 11 12 12 10 9 8 7 6 5 5 8 9 9 9 8 8 8 8 7 6 7 6 5 5 5 4 4 4 5 5 6 5 6 6 5 5 1 3 4 3 3 3 4
9 9 9 8 7 5 4 4 3 3 3 3 3 2 2 2 1 0 1 2 3 3 5 7 7 7 7 7 8 8 8 8 8 8 6 8 10 8 7 6 7 10 14 11 11 11 10 9 8 7 6 6 3 10 11 9 10 8 8 7 7 6 6 6 5 5 5 4 3 4 5 5 4 5 5 5 5 5 4 3 2 3 4 3 2
9 9 9 8 7 6 4 3 4 3 3 3 3 2 2 2 2 1 2 2 2 3 5 6 7 8 8 7 7 7 7 7 8 8 8 7 9 9 8 6 7 7 12 13 11 11 12 11 10 9 8 6 4 7 12 10 9 9 8 8 7 7 6 6 6 5 4 4 4 3 4 4 5 4 4 4 4 4 6 6 5 4 3 1 2
9 10 9 9 8 6 6 5 4 4 3 3 3 3 2 2 2 2 2 1 2 4 4 5 6 6 8 8 8 8 8 7 8 8 8 7 8 10 7 6 6 8 11 11 11 11 11 10 9 9 8 6 5 5 11 11 9 8 8 8 8 8 7 7 7 6 5 4 4 4 5 5 5 5 4 3 4 5 6 6 5 5 5 5 2
11 11 10 10 9 7 7 6 5 5 4 4 3 3 3 2 1 1 2 2 2 4 5 4 5 5 6 7 8 8 8 7 9 9 9 10 8 7 7 6 7 10 11 9 9 10 9 9 10 9 8 7 7 6 10 13 9 8 7 7 7 8 8 7 7 7 7 5 5 5 5 5 5 6 5 4 5 5 5 6 6 5 5 4 2
12 11 10 10 9 9 8 7 6 6 4 4 4 3 3 2 1 1 2 2 2 3 4 5 5 5 5 7 7 7 9 9 9 9 9 9 9 10 10 11 12 11 9 9 9 10 9 9 10 10 8 8 10 11 12 16 9 8 8 8 8 9 8 8 8 8 7 6 5 5 5 6 6 5 5 5 5 5 5 6 6 4 5 5 3
12 11 11 10 9 9 8 8 7 6 5 4 4 3 2 1 1 1 1 0 2 3 4 4 5 5 6 6 6 7 8 8 8 8 8 8 8 8 9 9 8 9 9 9 9 10 10 10 10 10 10 11 12 11 15 13 10 8 8 8 9 8 8 9 9 9 8 8 6 6 6 6 6 5 5 5 5 5 6 6 5 5 4 5 4
13 12 11 11 10 9 8 7 6 6 5 5 4 3 2 1 1 1 1 1 3 3 3 4 3 4 4 4 5 6 7 7 8 8 8 8 8 9 8 8 8 8 9 9 9 10 10 10 10 11 11 11 12 13 12 10 9 8 8 9 8 8 9 9 8 9 8 8 8 7 7 7 7 6 5 6 5 5 5 5 5 6 5 4 4
13 13 12 11 10 9 7 7 6 6 5 4 4 3 2 2 1 1 2 2 3 3 4 4 4 3 4 4 4 5 6 7 7 7 7 8 8 9 9 8 8 8 8 9 10 10 10 10 10 11 11 11 10 10 10 10 10 10 9 8 10 8 9 10 9 9 9 9 8 8 8 8 7 6 6 5 5 5 5 4 5 5 6 6 3
13 13 12 12 10 9 8 8 6 5 5 5 4 3 2 1 1 2 2 2 3 3 4 3 3 3 3 4 5 5 7 8 8 9 8 8 8 8 8 9 9 9 8 8 10 10 10 10 10 11 11 11 10 11 11 11 11 11 10 10 10 10 10 10 9 9 8 8 8 9 8 7 7 6 5 5 5 5 4 4 5 5 5 6 6
14 13 12 12 11 10 9 7 6 6 5 4 4 3 2 1 1 3 3 4 4 4 4 3 3 4 4 4 4 5 6 7 8 8 8 8 8 8 8 8 8 8 8 8 9 11 11 12 11 11 11 10 10 10 11 11 10 10 11 11 10 10 10 9 9 9 10 8 8 8 8 7 7 6 5 5 5 4 5 5 4 4 4 6 6
13 13 12 11 10 10 9 8 7 7 5 3 4 3 3 2 3 3 4 4 4 4 4 3 4 3 3 4 4 4 4 5 7 8 8 9 10 9 9 9 9 9 10 10 10 11 11 11 11 11 11 13 11 11 11 11 12 11 11 11 11 11 11 11 10 9 9 9 9 9 8 7 6 5 5 5 5 5 5 5 4 4 5 6 6
13 12 11 11 10 10 9 8 8 8 6 4 4 2 2 3 4 4 3 4 5 5 5 5 4 4 4 5 4 5 5 5 5 6 7 9 9 9 9 9 9 9 10 11 11 11 12 12 12 12 12 12 14 12 14 10 10 9 10 11 11 12 12 11 11 10 8 9 10 10 9 7 6 5 6 6 5 5 5 5 4 5 5 6 6
12 11 11 11 11 9 8 7 6 5 4 3 3 4 4 4 4 4 4 4 5 4 5 4 4 4 5 6 5 5 6 5 6 5 6 7 8 8 8 8 8 10 10 11 12 13 13 13 14 14 14 13 14 14 12 12 11 10 12 12 12 12 12 11 11 11 10 10 10 10 9 8 7 6 5 5 5 5 5 5 5 5 5 5 6
12 11 11 11 10 9 8 8 5 4 4 5 5 5 5 5 4 3 4 5 4 3 3 4 4 4 5 5 6 6 5 5 6 6 6 7 8 7 7 8 9 9 10 11 12 11 13 14 15 15 15 14 14 15 13 12 12 16 15 12 11 12 11 12 11 11 11 9 9 10 10 9 7 7 6 6 6 6 6 6 5 5 5 5 4
12 12 11 10 9 9 8 7 6 5 5 6 6 6 6 5 5 4 4 4 4 5 4 4 4 5 5 5 5 6 5 5 5 5 6 7 7 8 7 8 8 8 10 10 10 12 13 14 14 12 14 15 14 12 9 9 12 13 11 10 12 11 12 12 12 11 11 10 10 8 8 7 6 7 7 7 6 6 6 6 5 4 5 5 4
11 10 10 9 9 9 8 7 6 6 7 7 6 7 6 6 6 5 5 4 5 4 4 4 4 5 5 5 5 5 6 5 5 4 5 6 6 6 7 8 9 8 9 9 10 11 12 13 13 13 13 13 13 10 9 14 16 13 12 12 12 11 11 11 12 11 11 10 9 8 7 7 7 7 7 7 7 6 6 5 5 5 5 5 4
12 12 12 11 11 11 9 7 7 7 8 7 7 7 7 7 6 6 5 4 4 3 4 4 4 5 5 5 5 5 6 5 4 4 5 5 5 5 5 7 7 9 9 8 9 9 11 11 10 12 13 14 15 12 10 13 10 10 10 10 12 13 11 11 11 11 10 10 8 7 7 7 7 7 8 8 7 7 6 6 5 5 4 3 3
12 13 13 13 11 10 8 8 7 8 8 9 9 8 7 7 7 5 5 5 4 4 4 5 5 5 5 6 5 5 6 5 4 4 5 5 5 5 6 6 6 7 8 8 8 7 8 10 11 12 14 13 14 11 12 14 13 10 10 11 12 11 11 11 10 10 9 8 7 8 7 7 8 9 8 7 7 8 7 6 5 4 3 3 4
13 13 12 11 11 11 10 9 8 8 8 8 8 8 8 8 7 6 5 4 4 4 5 5 5 6 6 5 5 5 5 5 3 3 4 4 3 4 5 5 5 6 7 8 8 7 7 10 11 11 11 12 12 11 10 12 12 9 9 10 10 10 9 9 9 9 8 8 8 8 8 7 8 8 8 7 7 7 6 6 5 4 4 4 5
11 13 14 14 12 11 10 10 9 9 8 8 8 8 9 8 8 7 6 5 4 4 5 5 5 5 5 4 4 4 3 3 2 2 2 3 3 3 4 5 5 6 6 6 7 8 8 7 9 9 9 12 13 10 10 10 7 7 8 6 5 6 8 8 10 9 9 9 9 8 9 7 4 2 3 4 5 6 5 5 5 5 5 5 5
13 14 14 14 13 12 11 10 10 10 9 9 9 9 9 8 8 7 6 6 5 5 5 5 4 5 4 3 2 2 1 1 2 2 1 2 2 3 4 5 5 5 5 6 5 5 6 6 7 7 6 6 8 7 7 10 9 9 9 7 9 9 8 6 6 9 9 8 7 6 3 8 8 9 11 10 9 8 3 4 5 4 3 4 4
14 15 15 14 14 13 12 11 11 11 11 10 9 9 9 9 8 8 7 5 5 5 5 5 5 4 3 3 2 1 1 2 2 3 2 3 3 3 3 3 5 5 5 5 5 3 3 4 4 1 2 3 3 2 2 7 7 7 10 8 7 5 6 9 5 4 7 7 6 8 8 14 13 14 13 11 11 11 11 9 5 2 1 2 3
14 15 15 15 15 14 13 12 12 11 11 10 10 9 9 9 9 7 7 5 5 5 5 5 5 3 3 3 2 2 2 3 3 3 3 4 3 3 4 3 4 5 6 5 4 4 4 7 7 6 7 6 5 5 7 8 11 6 7 6 6 5 5 6 12 12 9 8 9 7 8 10 12 11 10 11 10 11 12 12 13 12 10 6 3
14 15 15 15 15 15 14 13 12 12 11 11 10 10 9 9 8 8 6 6 5 5 5 5 5 3 4 4 3 3 4 3 4 4 4 3 3 3 3 3 2 3 4 3 4 6 7 8 8 9 10 8 8 11 8 10 11 10 7 7 6 6 5 4 2 4 5 10 9 8 7 5 5 9 9 9 10 11 13 13 13 12 12 12 11
13 14 16 16 15 14 14 13 12 11 11 12 10 10 10 9 8 7 5 4 5 5 4 5 4 4 4 3 4 4 4 3 3 4 3 4 3 3 2 2 2 2 2 3 2 5 7 9 10 10 10 9 7 12 11 12 14 13 13 10 8 8 7 7 6 5 7 8 8 7 7 6 6 10 9 9 10 9 10 14 14 14 14 14 13
13 13 15 15 13 12 13 13 12 12 11 10 10 9 8 8 8 7 6 6 5 5 4 5 5 5 4 4 5 4 4 3 3 4 4 4 3 2 2 2 1 1 1 1 3 3 6 9 10 9 8 8 8 11 11 11 13 15 15 12 9 10 9 7 5 3 3 6 7 7 7 6 6 6 7 9 9 10 9 8 7 8 9 9 10
13 13 13 13 14 14 13 12 12 12 10 9 9 9 8 8 7 7 7 6 5 5 5 5 5 5 4 4 5 4 4 4 3 3 4 4 2 1 1 1 0 1 1 1 2 2 6 8 9 7 7 7 6 11 10 12 14 14 14 10 8 8 6 8 5 4 4 5 6 6 6 7 6 5 3 3 6 6 6 6 8 9 9 9 9
11 13 13 13 14 13 13 12 11 11 11 10 9 7 8 9 8 8 7 6 6 6 6 5 5 5 5 4 4 3 4 4 4 3 4 2 1 1 1 0 1 2 3 3 2 3 4 8 7 6 6 4 5 12 12 14 12 10 9 7 7 7 7 6 5 6 6 6 5 5 6 6 6 6 3 6 7 3 8 8 9 10 10 10 10
10 11 12 12 13 13 12 11 11 11 11 10 9 9 9 9 8 8 7 6 6 6 7 5 5 5 4 4 3 4 4 5 4 3 2 1 0 1 0 1 2 2 3 4 2 3 3 7 8 7 6 5 6 11 13 11 9 10 3 5 7 6 6 6 7 7 6 5 4 4 6 5 6 6 4 5 5 4 9 8 9 9 9 9 9
10 10 10 11 11 10 11 11 12 12 12 10 10 9 10 10 9 8 7 7 7 7 7 6 6 5 4 3 3 4 4 4 3 1 1 1 1 0 1 1 2 3 4 4 3 3 5 6 8 8 5 5 6 9 11 10 10 10 7 4 5 7 7 5 6 5 6 5 6 12 6 7 7 6 4 3 5 5 7 8 9 10 10 9 8
11 12 12 11 11 11 11 11 12 13 12 11 11 12 11 10 9 9 8 8 7 8 7 7 6 5 2 1 3 4 3 3 2 0 0 0 1 1 1 2 2 4 4 4 4 3 5 6 7 8 10 8 6 7 10 10 10 9 7 3 5 7 6 6 6 6 6 5 5 8 13 11 8 6 4 3 6 6 7 7 8 8 8 8 7
9 10 10 10 10 11 11 12 13 13 13 12 11 10 11 10 10 9 9 8 8 8 8 6 5 3 4 1 2 3 3 2 1 0 0 1 1 2 3 3 3 3 4 4 4 4 5 6 6 7 6 6 6 6 8 10 9 10 9 5 5 5 7 7 7 8 7 6 7 6 7 9 8 6 5 5 6 11 5 7 6 6 7 8 7
9 9 9 10 11 11 12 13 13 14 12 11 11 11 11 11 9 8 8 9 8 8 7 6 5 4 5 4 1 3 1 2 2 1 1 1 2 3 3 4 4 3 4 4 5 4 5 6 6 6 7 7 6 6 7 10 9 10 10 10 5 6 7 7 8 8 8 8 7 6 6 6 5 7 7 8 9 11 9 6 6 7 7 8 5
8 9 9 9 10 11 12 13 12 12 11 11 12 11 10 10 9 9 9 8 8 7 7 6 6 6 5 5 3 1 2 3 2 2 2 3 2 2 3 4 4 5 5 6 5 4 4 5 5 6 6 6 7 10 6 8 9 9 9 12 1 5 2 8 8 8 8 8 8 7 6 5 6 9 10 11 12 12 12 9 10 11 9 3 4
10 11 12 11 11 12 13 13 11 11 11 11 12 12 10 9 9 9 8 8 6 6 7 7 6 6 4 4 4 4 4 3 3 3 2 3 3 3 3 3 5 6 6 5 5 4 4 5 4 5 5 5 5 6 10 7 9 9 9 9 11 6 10 3 8 9 9 9 8 8 8 6 8 10 11 11 11 11 10 8 8 7 5 0 4
11 11 11 12 10 10 10 10 10 10 11 11 12 12 10 9 9 7 6 5 6 7 7 6 5 5 5 4 5 6 5 4 4 3 3 3 4 4 3 4 5 6 5 5 3 4 4 4 4 4 4 4 4 5 7 9 7 8 8 9 8 9 10 7 9 9 9 9 10 9 8 7 9 10 10 10 10 9 8 7 7 5 2 6 2
10 11 10 11 10 11 10 10 9 11 10 11 12 12 10 10 7 6 6 7 7 7 6 6 6 6 6 6 5 5 5 5 4 4 3 4 4 4 4 5 6 6 6 5 4 3 3 3 4 4 4 4 4 4 4 6 6 8 9 8 9 11 12 7 9 9 8 8 12 13 10 9 10 11 12 11 10 9 7 5 2 4 6 3 4
9 9 9 11 10 10 10 11 10 11 10 11 11 10 11 10 7 7 8 7 7 7 7 7 7 6 6 6 6 5 6 5 5 4 4 3 4 5 5 6 7 6 6 6 6 5 4 4 3 4 4 5 4 4 4 4 4 5 6 9 11 11 14 16 14 11 14 15 13 10 10 11 11 9 7 7 7 6 4 3 5 8 5 5 4
11 9 8 9 9 9 10 11 11 11 10 11 11 10 10 8 7 8 8 7 8 7 7 7 6 6 6 6 6 6 6 6 6 5 4 4 4 5 5 6 7 6 6 6 6 6 5 4 4 4 5 5 5 5 5 4 4 4 5 4 6 8 10 12 10 9 10 8 9 7 6 7 10 11 11 10 9 7 6 6 4 3 6 4 5
8 8 9 8 7 8 10 11 11 11 10 10 10 10 10 8 9 8 8 8 7 7 7 7 7 6 6 6 6 6 2 5 6 5 5 4 4 4 5 7 7 7 7 7 6 6 5 4 4 5 5 5 5 6 6 6 5 6 6 6 7 8 8 7 8 8 8 9 8 7 7 7 7 7 7 7 6 5 5 5 5 5 6 6 7
9 10 10 10 9 9 10 11 11 11 10 10 10 10 9 9 9 8 8 8 7 8 7 6 6 6 6 6 6 7 7 6 6 5 4 4 5 5 6 5 6 6 5 7 8 5 4 4 5 5 5 6 5 7 6 5 4 6 2 7 8 7 6 6 7 9 9 8 8 7 7 7 7 7 7 6 6 5 5 5 5 6 6 6 6
8 7 10 10 10 11 12 11 9 10 10 10 10 10 9 9 9 8 8 8 8 8 7 6 6 6 6 6 7 6 7 7 6 5 5 5 9 9 6 2 6 6 8 9 7 2 1 4 4 5 2 4 6 5 10 10 7 6 6 8 8 9 8 8 10 8 6 8 7 7 7 7 7 6 6 6 6 6 6 6 5 2 3 3 3
9 9 10 10 11 11 11 11 9 10 10 10 10 10 9 9 9 9 9 9 9 8 7 6 6 6 6 6 7 6 7 7 6 5 4 5 6 6 7 8 9 7 7 7 7 7 9 10 5 4 5 10 14 14 12 9 7 6 7 7 7 7 9 10 8 7 6 6 6 6 6 5 5 5 5 5 4 4 4 4 5 4 3 4 2
Wind_Direction
135 127 109 88 75 55 51 72 87 103 66 63 58 51 18 18 306 243 354 301 254 221 209 200 221 220 231 224 217 208 213 208 204 210 225 233 233 229 228 223 229 221 215 210 210 213 222 216 215 216 210 213 212 216 213 213 190 197 195 187 214 212 226 210 242 265 261 233 229 246 243 234 244 244 246 245 247 248 244 245 245 245 238 229 228
157 139 121 109 85 77 80 74 59 70 62 327 284 104 99 76 298 268 186 244 257 253 229 217 215 232 227 227 232 232 232 231 226 216 219 241 233 245 250 238 228 225 219 215 212 217 215 214 215 216 213 210 214 217 211 204 195 194 192 190 207 226 214 221 232 259 231 262 277 256 236 198 200 217 228 229 235 238 246 252 252 256 245 244 241
146 133 120 102 97 91 91 85 84 74 90 67 49 23 24 271 240 231 191 209 220 241 258 241 221 219 229 223 232 241 250 261 264 260 254 253 248 230 234 243 241 228 217 203 269 238 226 224 217 213 212 211 206 212 211 199 198 194 192 209 189 199 223 185 212 250 287 269 262 268 232 259 158 201 208 225 231 251 258 256 250 262 255 255 252
147 127 111 107 103 102 90 90 76 76 67 77 44 49 65 76 9 296 234 250 232 206 222 240 238 225 232 237 232 239 246 254 263 260 245 239 242 243 233 229 232 233 217 184 197 223 251 251 224 215 209 212 210 209 206 205 197 196 195 201 212 203 206 194 199 223 265 288 253 270 291 283 207 157 277 261 233 226 248 251 224 244 288 267 268
137 126 119 119 117 104 98 94 98 88 79 60 51 39 36 14 21 2 170 242 255 251 234 224 218 220 226 229 232 244 247 249 256 252 242 242 247 250 245 235 229 227 223 200 220 212 230 235 240 217 214 210 211 210 208 211 206 197 195 199 205 217 212 190 191 205 231 256 287 284 271 227 29 331 325 230 169 232 209 209 197 254 253 251 244
139 132 125 115 112 126 128 130 119 119 99 81 67 62 15 24 0 347 276 224 224 232 243 240 230 226 213 216 217 223 239 235 234 238 237 235 231 236 248 242 232 226 220 215 213 199 207 222 243 239 218 213 214 215 215 211 213 205 191 203 204 210 234 209 198 182 237 234 250 283 289 318 318 328 299 134 222 17 251 270 272 249 252 242 262
147 140 144 137 135 137 133 123 119 110 95 98 111 95 107 36 21 329 322 292 243 226 225 228 241 240 230 228 227 226 228 233 235 239 245 241 242 252 263 281 265 236 226 223 218 194 207 217 216 214 279 270 221 218 214 214 209 211 193 198 206 200 210 224 219 198 199 234 236 247 273 265 272 294 309 314 263 193 213 215 229 237 280 296 286
156 158 152 140 141 143 127 128 132 109 120 134 115 117 85 91 278 303 303 292 281 241 223 223 229 229 232 228 230 235 235 245 235 241 237 236 241 247 242 236 243 262 244 233 221 202 207 217 214 196 185 243 270 222 217 209 217 209 202 201 200 211 203 222 219 230 234 224 207 242 239 255 269 265 262 293 304 310 322 201 204 196 270 273 289
164 159 156 153 151 152 147 144 121 142 149 141 129 96 105 92 26 137 267 278 275 253 248 237 240 243 242 234 225 230 235 240 243 244 236 237 240 235 227 228 240 246 257 240 234 219 202 213 215 191 186 212 222 266 225 211 213 213 195 201 202 206 213 218 235 239 239 252 227 222 243 247 231 218 244 249 289 308 288 266 352 240 227 212 245
168 158 157 155 154 156 157 144 165 155 156 144 134 123 103 96 94 37 42 298 293 280 266 254 239 240 240 237 232 238 229 233 241 240 237 224 236 235 224 221 222 226 245 245 231 229 225 214 208 196 193 192 195 259 271 222 212 210 201 204 205 211 211 219 227 235 239 254 254 269 247 244 253 255 240 257 263 265 287 301 297 312 304 17 249
170 164 159 156 156 160 167 182 169 172 174 167 134 122 117 96 42 46 46 353 318 297 279 267 265 245 240 234 235 237 240 235 237 234 239 235 236 237 227 231 235 230 232 234 230 228 224 224 216 205 207 177 177 215 271 242 210 211 204 205 211 215 215 216 219 230 245 246 251 250 257 258 275 278 282 271 269 279 287 290 298 309 341 295 142
174 169 164 162 160 170 180 182 182 171 174 161 150 132 126 107 98 54 73 26 328 314 293 273 259 250 248 243 234 232 236 232 230 234 232 232 228 241 230 230 240 241 234 231 230 225 225 222 221 214 194 174 185 199 239 242 218 209 204 206 213 218 224 224 222 226 226 237 241 252 255 268 272 270 274 275 275 276 282 290 293 312 293 317 1
177 173 168 168 173 174 188 176 178 179 168 167 145 133 130 120 122 28 55 41 345 290 293 294 274 262 243 239 238 234 235 230 239 239 235 234 225 226 236 232 229 227 225 227 228 224 224 221 215 215 206 186 194 199 226 240 219 211 210 208 216 221 221 224 225 223 223 230 241 242 252 261 261 264 270 273 266 265 267 276 276 291 294 301 300
178 175 170 171 175 178 181 177 179 178 176 168 146 136 130 106 94 39 73 141 285 279 275 268 269 256 249 236 243 244 242 245 242 236 235 236 234 233 232 234 235 231 227 229 229 224 223 225 224 220 216 201 201 195 227 223 216 215 211 214 217 222 225 223 226 227 227 231 242 252 255 255 261 264 267 262 261 258 256 262 284 282 280 286 303
177 176 174 172 174 175 177 183 180 182 175 162 157 145 133 107 84 12 306 279 268 280 278 281 278 275 269 257 247 240 243 242 242 243 242 238 238 241 242 238 239 238 235 231 231 231 229 224 223 225 222 216 205 210 219 220 212 215 224 218 219 224 224 225 226 227 228 231 235 245 256 257 255 257 257 262 261 254 260 271 282 290 274 260 277
179 175 173 171 171 175 179 185 188 180 173 168 160 152 144 107 39 346 324 312 293 288 292 297 301 302 297 277 255 255 255 253 248 245 244 246 245 243 247 244 237 237 236 235 231 231 229 228 224 225 226 222 220 215 213 218 217 214 219 225 226 222 229 226 229 230 234 239 243 245 248 252 251 249 249 251 259 261 260 261 266 271 281 287 282
186 175 173 170 170 178 185 186 179 178 185 176 162 143 132 135 238 279 275 270 279 294 293 291 295 292 294 294 290 280 269 260 257 251 245 244 248 248 247 247 244 237 234 231 235 231 230 230 229 226 224 223 219 220 216 217 219 218 218 221 227 228 230 231 230 233 234 232 235 237 241 245 241 240 243 245 245 250 252 263 264 267 282 277 284
189 175 170 171 174 179 184 184 177 180 186 168 150 137 146 202 253 268 256 277 281 281 282 282 287 292 293 283 282 275 267 271 272 267 261 254 248 248 249 249 249 250 243 237 231 230 226 224 228 228 224 220 218 221 220 218 222 226 220 220 224 227 229 230 230 231 231 230 229 231 233 236 236 237 232 232 237 245 254 257 262 271 270 272 281
190 180 171 170 172 178 181 179 179 183 185 166 146 174 180 196 226 242 263 275 278 278 280 276 282 292 296 295 299 293 279 265 258 259 259 254 250 248 245 250 256 251 247 244 240 236 235 228 223 228 226 224 220 219 218 214 214 223 221 219 219 222 226 226 226 224 224 225 225 227 227 231 227 225 226 225 227 235 247 246 247 253 258 260 278
194 182 170 171 176 181 179 180 187 180 175 162 172 220 214 227 225 234 245 264 275 272 276 280 283 286 296 298 298 305 302 297 283 259 250 249 250 251 251 248 247 249 251 249 247 244 240 237 232 228 224 223 221 218 218 206 216 215 225 224 215 217 223 225 226 220 222 220 222 226 222 222 211 217 221 227 225 224 232 241 241 244 249 250 258
195 183 176 175 176 179 176 183 200 169 156 174 192 207 224 230 232 236 244 249 253 263 270 272 276 280 294 302 306 310 308 310 307 288 266 258 249 244 248 250 250 248 247 247 246 243 241 237 234 230 224 219 222 218 215 209 208 211 221 224 216 215 222 224 224 219 217 222 223 224 220 212 207 213 221 221 222 221 209 222 232 240 245 242 246
199 192 184 176 174 176 180 189 198 170 182 197 199 212 216 218 228 242 242 258 266 261 262 267 273 282 291 302 307 309 309 317 314 302 287 277 269 261 249 244 242 247 248 250 250 248 241 236 233 229 224 223 224 220 214 212 209 215 214 223 217 216 221 222 220 221 215 217 220 223 222 216 202 211 218 221 212 209 213 220 223 228 242 247 247
198 195 190 181 176 178 188 187 185 186 205 203 206 211 217 216 219 225 244 269 285 282 273 270 276 283 287 293 296 301 311 314 307 304 299 297 298 295 282 265 254 253 249 246 247 247 247 241 234 233 229 226 225 224 221 220 218 213 204 210 220 219 220 220 218 218 217 213 216 217 226 223 202 211 218 227 224 217 213 222 225 222 235 250 248
200 198 195 186 178 181 187 185 189 195 202 205 208 214 217 221 222 230 231 255 270 259 253 253 266 272 284 289 290 296 301 309 312 310 302 303 303 299 294 285 273 257 250 244 244 246 246 244 241 234 228 221 222 226 223 218 214 211 203 207 214 215 216 218 217 211 210 211 211 214 219 220 207 214 221 220 219 220 221 228 217 221 232 243 238
195 197 194 188 186 190 195 192 199 204 205 205 213 220 225 223 230 238 250 249 265 270 272 270 265 269 274 283 290 292 292 296 301 304 308 308 306 302 294 291 286 284 279 266 254 247 244 242 242 237 231 226 222 221 222 232 226 211 201 213 221 217 208 212 212 212 212 210 206 212 219 212 204 215 223 222 218 217 219 216 220 221 233 223 231
195 196 196 194 193 198 200 198 206 207 210 207 214 222 231 231 229 236 250 252 256 259 265 276 280 275 275 274 280 278 280 287 303 305 310 311 315 318 318 307 303 291 282 278 283 268 245 240 236 239 237 231 224 221 230 224 222 214 206 204 206 206 205 205 203 205 209 201 201 212 214 210 211 217 225 224 227 221 222 224 219 227 211 216 237
201 201 202 199 200 204 203 201 212 215 209 222 219 219 226 233 231 229 233 250 255 258 266 274 277 279 281 277 270 274 278 278 286 316 304 308 323 334 331 332 323 309 297 285 271 274 283 254 240 236 234 234 221 213 217 220 224 211 208 209 208 207 205 203 200 201 202 199 200 208 213 209 216 219 222 223 225 223 222 216 208 211 217 224 226
208 205 206 205 203 200 202 204 210 220 208 218 221 226 231 229 230 232 238 236 240 258 269 271 274 273 278 281 281 280 279 294 316 302 331 344 352 360 351 352 342 337 330 310 295 279 267 275 256 239 232 231 221 209 210 212 208 191 194 189 202 223 214 214 211 199 199 200 198 199 212 213 229 6 323 247 228 220 205 214 194 204 208 222 235
213 209 208 208 204 201 201 203 207 214 214 212 222 227 231 232 233 238 242 242 234 246 258 268 268 269 274 276 273 286 306 282 283 285 311 335 358 1 355 0 356 357 344 332 315 293 286 275 271 249 233 221 212 202 193 207 203 192 192 191 189 194 196 212 224 206 195 187 184 187 81 68 69 67 52 43 40 18 320 222 183 195 209 235 248
212 210 208 207 208 205 201 200 203 210 208 207 217 229 225 227 231 240 240 236 235 236 256 257 259 259 261 258 252 253 282 296 276 278 303 312 322 335 338 354 1 3 0 345 336 330 330 358 343 255 91 38 1 349 211 193 200 191 184 178 178 181 190 202 160 229 173 162 149 101 80 81 74 68 64 54 44 42 37 29 26 7 320 264 273
214 211 208 207 208 208 204 200 202 207 208 208 219 222 223 227 231 228 235 223 223 230 243 253 256 255 248 242 239 240 265 268 306 302 306 307 325 324 318 333 12 13 8 11 10 30 42 37 30 32 42 45 31 4 353 202 181 187 186 170 146 146 204 164 180 189 150 151 136 120 115 113 106 98 85 72 71 68 62 60 54 48 35 11 299
214 211 207 206 207 206 205 203 204 205 207 215 218 223 223 230 228 230 226 225 226 233 243 237 250 244 239 242 239 242 254 280 287 295 310 326 319 308 320 325 359 29 28 25 54 69 75 67 53 43 42 37 39 8 42 71 97 101 107 134 119 109 102 85 115 102 144 150 149 147 132 125 114 108 111 104 92 87 90 84 77 72 65 56 47
212 209 206 206 205 204 204 207 208 206 209 218 218 223 224 222 214 217 217 220 220 231 237 246 245 238 244 256 259 264 276 276 287 307 313 297 303 307 329 332 37 40 26 348 30 76 70 67 60 61 39 22 26 7 16 62 75 74 77 78 64 65 66 69 74 124 155 147 142 128 119 117 112 131 127 122 117 111 111 111 109 94 73 64 55
212 207 205 203 204 207 208 208 212 210 211 220 221 221 214 211 211 202 202 212 228 223 234 244 243 247 250 254 269 279 287 296 303 305 302 293 292 327 338 323 32 85 42 327 321 53 68 70 65 56 56 26 20 8 8 49 63 71 65 70 75 80 78 56 52 79 110 118 123 123 120 128 141 160 150 146 151 142 141 143 122 97 90 87 79
211 207 204 203 204 208 209 205 207 208 204 212 217 209 202 202 204 197 205 215 223 233 226 234 245 250 254 263 275 279 291 307 308 309 295 293 323 14 286 263 54 49 36 351 331 30 68 64 65 61 61 39 16 11 12 45 57 69 74 77 81 75 83 99 93 74 58 76 93 104 123 134 145 144 96 355 151 145 131 120 104 88 80 68 57
209 204 204 205 205 206 206 207 206 203 202 202 206 199 196 204 201 208 209 216 225 235 232 225 239 244 259 261 276 290 295 303 305 306 288 288 8 25 314 222 152 128 104 91 58 3 68 80 76 66 61 49 20 14 16 34 31 38 69 83 87 92 95 94 101 99 100 91 102 120 132 133 126 121 57 349 350 116 137 127 109 103 94 81 69
210 203 202 201 201 203 204 202 199 199 198 203 196 195 204 208 205 217 214 213 224 238 242 223 240 247 258 273 288 301 307 310 313 297 287 295 212 93 225 223 167 140 117 101 68 7 19 81 81 70 62 42 29 12 18 21 10 358 42 92 101 102 103 108 103 99 81 81 85 117 130 119 116 108 48 352 359 316 137 132 120 114 108 103 96
200 200 199 201 200 199 198 198 194 197 202 201 201 196 204 209 211 213 213 218 225 238 241 236 238 244 248 268 285 294 310 314 299 282 299 330 316 28 132 218 173 144 116 94 88 50 33 60 74 74 67 66 53 32 21 12 359 355 333 111 115 108 113 116 114 104 96 80 49 23 22 117 109 109 55 338 338 280 137 137 130 122 118 112 115
196 194 197 197 197 198 194 190 195 199 202 202 202 204 209 208 211 209 216 225 228 243 242 241 243 242 245 317 305 306 316 305 292 264 222 295 279 179 156 193 153 131 110 105 82 59 56 55 68 76 71 69 66 47 26 10 1 352 344 119 128 138 134 131 144 138 123 109 91 56 35 40 78 88 76 359 339 309 145 139 138 136 126 122 121
197 195 196 192 188 191 193 194 198 201 201 201 202 201 208 213 214 216 216 226 232 243 244 239 243 202 159 190 270 282 295 288 275 45 76 124 132 150 164 180 162 152 135 106 88 76 70 65 65 70 66 67 70 60 34 13 10 349 349 320 145 140 143 149 152 145 135 116 113 101 73 56 70 85 79 32 17 358 128 132 131 125 121 120 134
195 189 183 184 185 191 191 191 198 201 200 200 195 202 211 213 211 210 215 230 241 238 242 243 238 219 182 169 282 290 269 256 249 204 163 191 166 150 160 172 165 146 133 101 93 85 79 76 70 70 71 62 52 66 57 32 14 359 344 341 154 143 150 150 143 143 141 138 128 105 105 65 79 91 81 64 46 29 15 125 107 99 75 76 96
185 162 179 184 186 191 197 202 204 201 199 197 198 202 207 207 204 215 224 236 240 231 230 232 226 225 234 164 175 261 245 242 222 211 184 172 162 157 156 163 157 138 127 112 99 92 84 82 80 74 73 71 59 47 46 56 24 12 360 356 289 121 48 146 141 137 131 129 119 113 111 91 89 89 82 74 62 52 51 73 69 80 71 24 148
177 178 189 191 189 191 195 198 196 193 190 186 186 195 200 201 208 213 222 234 230 222 222 225 224 229 219 213 171 172 227 224 204 216 186 169 167 163 164 152 143 134 121 114 100 102 101 91 88 81 74 64 65 64 32 40 40 18 20 26 21 46 320 180 132 130 124 118 111 104 102 97 95 89 85 81 86 91 88 88 92 89 99 307 257
194 194 187 194 198 192 190 185 186 184 184 185 189 196 196 199 207 208 221 202 204 217 221 218 213 224 211 214 188 177 202 200 193 201 167 170 166 166 181 164 156 138 132 109 103 106 107 108 104 98 90 85 79 78 64 37 37 27 35 33 35 20 357 115 123 125 118 115 119 115 110 114 98 87 74 60 56 65 92 104 95 102 157 269 125
195 195 183 188 196 188 187 184 182 183 185 186 190 198 190 194 198 202 189 195 202 202 202 210 215 222 205 211 197 190 183 199 176 201 185 169 165 188 179 162 161 148 137 126 123 127 122 122 115 113 117 111 90 83 83 74 62 59 42 39 40 36 25 35 116 113 105 88 86 97 113 118 104 99 102 98 85 82 88 91 144 189 243 191 118
194 193 187 197 197 193 184 178 177 180 183 186 191 189 182 193 202 196 194 198 197 198 201 214 222 221 205 203 194 196 197 185 197 195 180 183 177 184 184 162 166 158 151 150 152 153 158 142 146 141 133 123 110 102 102 108 117 84 68 48 50 55 67 58 63 78 84 98 104 109 115 122 130 140 145 120 118 114 115 164 220 242 231 105 123
196 190 178 193 194 190 187 180 177 176 180 181 187 188 190 201 192 194 196 194 198 199 201 210 212 207 196 211 195 199 195 178 199 208 199 175 172 190 164 172 166 162 155 158 160 168 171 165 151 150 140 134 133 122 120 123 123 120 116 125 115 100 99 102 103 111 111 108 129 135 105 77 80 66 73 87 116 142 172 202 190 144 95 105 101
190 175 179 189 195 197 189 182 173 171 177 179 185 196 198 194 184 196 195 191 195 195 206 209 202 210 200 189 210 111 183 192 191 204 196 186 173 184 188 176 178 168 171 170 178 180 183 167 161 150 155 145 144 148 144 145 144 145 147 148 143 140 143 136 129 136 135 135 136 118 133 146 138 136 137 144 154 163 153 142 121 116 103 86 77
182 173 178 191 196 199 187 182 174 171 176 181 189 194 187 179 182 186 188 188 190 189 205 210 200 204 205 194 213 187 204 208 186 198 206 180 183 179 182 186 178 184 181 181 183 188 181 154 172 155 158 165 161 165 160 66 64 42 101 157 163 168 157 152 110 115 133 144 148 159 147 152 159 158 160 153 148 150 134 122 135 143 146 162 177
183 176 185 188 190 192 185 186 182 174 180 186 184 186 179 180 185 191 186 191 185 187 200 202 198 203 200 197 211 199 189 207 188 195 179 112 57 59 36 19 186 104 54 39 43 39 117 178 155 159 142 181 184 135 93 87 71 63 47 46 47 43 55 106 122 154 176 158 169 157 163 161 160 163 151 148 150 146 147 150 135 131 170 127 116
181 181 184 188 187 191 191 192 188 179 187 187 185 186 184 188 185 181 185 193 184 190 197 199 194 203 200 198 206 196 191 198 190 191 182 158 152 106 77 64 30 70 69 39 48 35 26 21 16 164 82 63 90 104 108 106 104 89 75 74 77 90 106 120 155 181 227 177 157 155 153 145 152 146 148 142 148 150 152 156 152 162 167 128 193